Wind_Speed
14 16 16 15 17 18 18 18 17 16 16 15 15 15 14 11 10 9 9 11 11 11 10 9 9 9 10 11 13 14 15 16 17 18 18 18 19 19 20 20 20 21
14 16 17 15 17 19 18 18 18 17 17 16 15 15 15 13 11 10 9 10 11 11 11 11 10 10 10 11 12 13 14 15 16 17 18 18 19 19 20 20 20 21
14 16 16 15 16 18 18 17 18 18 18 17 16 16 15 13 12 11 10 10 9 10 10 11 11 11 10 11 12 13 14 15 16 16 17 18 18 18 19 20 20 21
14 15 16 15 15 17 17 17 18 18 19 19 18 17 16 13 12 11 10 10 9 9 9 10 11 11 11 12 12 13 14 15 16 17 17 18 19 19 19 19 20 20
14 15 15 14 14 16 17 16 17 18 19 20 19 18 17 15 12 11 10 10 9 9 9 9 10 12 12 13 13 14 15 15 16 17 17 18 19 20 20 20 20 20
15 16 16 14 14 16 16 16 17 18 18 19 20 19 19 16 14 13 11 10 11 11 10 10 11 12 13 13 14 14 15 16 16 17 17 17 18 19 20 21 21 21
15 16 16 14 14 16 16 16 17 17 18 19 19 19 19 18 16 14 13 12 12 13 12 12 13 13 14 14 14 14 15 16 16 17 17 18 19 20 20 21 21 22
16 16 15 14 14 16 16 17 17 17 17 18 19 19 18 18 17 15 14 13 13 14 14 14 15 15 15 14 14 14 14 15 15 16 17 18 18 20 21 22 22 22
16 16 15 14 15 15 16 17 17 17 17 18 18 18 17 17 16 16 15 14 14 14 15 15 16 17 17 17 15 15 15 15 15 14 15 16 17 18 20 22 23 23
16 16 15 15 15 15 16 17 17 18 17 17 17 17 17 16 16 16 15 15 14 15 15 16 16 17 18 18 17 16 16 16 15 15 14 15 16 17 18 20 21 23
16 15 15 15 15 15 15 16 17 18 17 17 16 17 16 15 15 15 15 15 15 15 15 16 16 17 17 18 18 18 17 17 17 16 16 16 16 17 17 17 19 21
15 15 15 15 15 15 15 16 17 17 17 16 16 16 16 16 16 15 15 15 16 16 16 16 16 16 17 18 18 18 18 18 18 17 17 17 18 18 18 17 17 18
15 15 16 16 15 15 15 16 17 17 17 16 16 16 16 16 16 16 16 16 16 16 16 17 17 17 17 18 18 18 18 18 18 18 18 18 18 19 19 18 17 17
15 15 16 16 16 15 15 16 16 17 17 17 17 16 16 17 17 17 18 18 17 17 17 17 17 17 17 18 18 19 19 18 19 19 18 17 17 18 20 20 18 17
15 15 16 16 16 15 16 16 16 16 16 17 17 17 17 17 18 18 18 18 18 18 18 18 18 18 18 18 19 19 19 19 19 19 18 17 17 17 19 20 19 17
15 16 16 16 16 15 16 16 16 16 16 17 17 18 18 19 19 19 19 18 18 18 18 18 18 19 19 19 19 20 20 20 20 19 18 17 16 16 18 20 20 18
16 16 16 15 15 15 16 16 16 16 16 17 17 18 19 20 21 21 20 20 19 19 18 18 18 19 19 19 19 21 21 22 20 19 18 18 16 16 17 19 20 19
16 16 16 15 15 16 16 16 16 17 17 17 18 19 20 21 21 21 21 21 20 20 20 19 19 19 20 20 20 21 22 22 21 20 20 19 17 16 17 18 19 19
18 17 17 16 16 16 16 17 17 17 17 17 18 19 20 21 21 22 22 22 21 21 21 20 20 20 20 20 20 21 22 22 22 22 21 19 18 17 18 19 19 18
18 18 18 18 17 17 17 17 18 18 18 18 18 19 20 21 21 21 22 22 22 22 22 21 21 21 21 20 20 21 21 22 22 23 22 20 19 18 18 19 19 19
18 18 18 19 18 18 18 18 18 18 18 18 18 18 19 20 21 21 22 22 22 22 23 22 22 22 21 21 20 20 21 22 22 23 22 22 20 19 19 19 20 19
18 18 18 19 19 19 18 18 19 19 19 18 18 18 19 20 21 22 22 22 23 23 23 23 23 23 22 22 21 21 21 22 22 22 23 23 22 20 20 20 20 20
19 19 19 19 19 19 19 19 19 20 20 19 19 20 21 21 22 22 22 22 23 23 23 23 23 23 23 23 23 22 22 22 22 21 22 23 23 22 20 20 20 20
19 20 21 21 21 20 21 21 21 21 21 21 21 21 22 22 22 22 22 22 22 23 23 24 23 23 23 23 23 23 22 22 21 21 21 23 23 23 21 21 21 21
19 20 21 22 22 22 22 22 21 21 21 21 21 22 22 23 22 22 21 22 22 23 23 24 24 24 24 23 22 22 22 22 21 21 21 22 23 23 22 21 21 21
19 20 20 22 22 22 22 22 22 21 21 22 22 22 22 22 22 22 21 22 23 23 23 24 24 24 24 24 23 23 22 21 21 21 20 21 22 22 22 22 21 21
Wind_Direction
325 329 330 336 339 337 337 340 342 344 341 340 342 337 328 322 316 308 300 293 292 292 293 293 288 283 281 278 278 278 277 276 274 271 268 266 265 264 263 260 258 256
322 327 331 334 336 335 335 338 339 340 339 338 341 338 330 324 320 314 303 294 294 299 301 300 297 292 288 285 281 278 276 275 274 273 272 270 267 266 265 265 262 259
321 327 332 330 328 331 334 335 337 338 336 334 337 338 332 326 321 314 307 302 302 303 301 300 301 301 299 296 292 286 281 277 273 270 270 271 270 268 267 266 265 264
321 325 330 328 324 329 333 334 335 336 333 331 333 335 332 327 319 313 309 307 304 299 296 297 300 301 302 301 299 295 290 284 279 274 269 267 267 267 267 266 265 265
319 321 327 330 325 325 330 333 334 334 331 328 330 331 330 326 319 311 307 305 301 295 295 297 300 301 302 301 300 296 293 289 285 281 277 272 269 267 266 266 265 265
316 318 325 331 325 322 330 335 334 333 329 326 326 327 327 325 319 312 307 305 302 300 302 305 306 306 304 302 299 295 291 289 286 284 282 279 276 272 269 266 265 264
312 315 321 327 322 320 330 335 333 331 327 324 323 324 324 323 319 312 307 306 305 304 306 308 309 308 306 304 301 296 291 287 286 285 283 282 280 278 275 272 268 264
310 312 318 324 323 322 329 333 332 329 325 322 321 321 322 323 318 311 306 304 304 303 305 308 310 309 307 304 300 298 294 290 286 284 283 282 281 280 278 277 273 268
308 312 316 322 323 325 329 331 330 327 324 321 320 320 322 323 319 312 307 304 303 303 304 308 311 310 309 306 302 300 298 294 291 289 286 284 281 280 278 277 275 273
306 310 315 318 321 324 327 328 328 326 322 320 320 320 322 323 321 315 310 307 305 304 304 307 309 309 308 306 304 301 300 299 297 297 296 295 290 285 280 277 275 273
303 308 312 314 318 321 324 326 326 325 322 320 320 321 321 322 322 320 316 312 307 305 304 305 306 306 305 304 303 301 299 299 300 302 304 306 304 300 293 285 278 273
300 305 308 311 315 318 322 325 325 324 323 321 320 320 321 321 321 321 319 316 312 307 305 303 303 302 301 301 301 300 298 298 300 303 306 309 310 308 304 297 288 278
301 303 305 308 312 316 321 324 323 323 324 324 323 321 320 320 320 321 320 317 313 309 306 303 301 300 299 298 298 298 297 297 298 301 304 308 311 310 308 304 297 288
300 302 304 306 310 315 320 321 321 323 326 327 326 323 321 320 318 318 317 315 312 309 306 304 302 300 298 297 297 296 296 294 294 297 301 305 309 310 309 306 302 296
302 304 304 305 309 315 318 317 319 323 326 328 328 326 325 322 318 315 312 310 310 309 307 304 302 301 299 298 296 294 292 290 288 290 295 300 305 307 307 306 303 299
305 306 305 306 309 312 314 316 318 322 325 326 327 328 328 325 320 316 312 308 307 306 306 304 303 301 300 299 297 292 287 284 283 285 289 294 299 303 304 304 303 300
306 307 307 309 310 311 314 316 319 321 322 324 327 329 329 326 322 319 315 312 309 306 305 305 304 303 300 299 297 292 287 284 284 284 284 288 294 297 299 300 302 302
310 311 312 313 313 314 316 318 319 320 320 323 327 328 328 325 322 320 318 317 314 311 308 306 305 304 301 300 298 294 291 287 283 280 280 283 288 291 293 295 298 301
312 313 314 316 317 317 318 317 317 316 318 322 326 326 325 323 322 321 320 319 317 315 313 310 307 305 303 301 299 297 294 288 280 276 276 278 283 286 287 289 292 297
311 312 314 315 316 316 316 315 314 314 317 321 323 323 323 322 321 321 320 320 319 318 317 315 311 308 305 303 301 299 295 288 279 274 273 275 277 280 281 284 288 292
310 310 311 312 313 314 313 313 313 314 316 318 320 321 322 321 321 320 320 320 320 320 320 318 315 312 308 306 304 301 298 291 282 275 273 273 273 274 276 279 283 287
310 309 308 308 309 310 310 310 311 312 314 316 317 318 320 321 320 319 319 320 321 321 321 320 318 315 311 308 305 302 300 296 288 279 274 272 271 271 272 275 278 282
309 308 307 306 306 305 305 307 308 310 311 313 314 316 319 320 320 319 318 318 319 320 321 321 320 316 312 309 306 304 302 299 293 284 277 272 271 270 270 271 275 278
309 308 306 305 304 303 303 304 306 307 308 310 312 314 317 320 320 319 318 317 318 319 320 322 322 318 314 310 307 306 304 300 296 289 281 274 271 270 269 268 271 274
309 306 304 303 302 302 301 303 304 305 306 307 310 313 316 318 319 318 318 318 317 317 319 321 322 321 318 315 311 308 305 302 297 292 285 277 273 271 270 268 269 271
309 305 301 300 300 300 300 301 302 303 303 305 307 311 315 317 317 318 319 319 317 316 318 320 322 322 322 320 317 313 309 303 297 292 286 279 274 272 271 270 269 270
Height
3127 3126 3125 3123 3122 3120 3118 3116 3115 3113 3112 3111 3110 3109 3108 3107 3107 3106 3106 3105 3104 3104 3104 3105 3105 3105 3105 3105 3105 3105 3105 3104 3104 3104 3104 3104 3105 3105 3105 3105 3105 3105
3126 3125 3124 3122 3121 3119 3117 3116 3114 3113 3111 3110 3109 3109 3107 3106 3106 3105 3104 3104 3103 3103 3103 3102 3103 3103 3103 3103 3103 3103 3103 3103 3103 3102 3102 3102 3103 3103 3103 3103 3103 3103
3125 3124 3123 3122 3121 3119 3117 3115 3114 3112 3111 3110 3109 3108 3107 3105 3105 3104 3103 3103 3102 3102 3101 3101 3101 3101 3101 3101 3101 3101 3101 3101 3101 3101 3100 3100 3100 3100 3101 3101 3101 3101
3124 3123 3122 3121 3120 3118 3117 3115 3113 3112 3110 3109 3108 3107 3106 3105 3104 3103 3102 3102 3102 3101 3100 3100 3099 3099 3099 3099 3099 3099 3099 3099 3099 3099 3098 3098 3098 3098 3098 3098 3099 3099
3123 3122 3122 3120 3119 3118 3116 3114 3113 3111 3110 3108 3107 3106 3105 3104 3103 3102 3101 3101 3101 3100 3100 3099 3099 3098 3098 3098 3097 3097 3097 3097 3097 3096 3096 3096 3096 3096 3096 3096 3096 3096
3122 3121 3120 3119 3118 3117 3115 3113 3112 3110 3109 3107 3106 3105 3104 3103 3102 3101 3100 3100 3100 3099 3099 3098 3097 3097 3096 3096 3096 3095 3095 3095 3094 3094 3094 3094 3093 3093 3093 3093 3094 3094
3121 3120 3119 3118 3117 3116 3114 3112 3111 3110 3108 3107 3105 3104 3103 3102 3101 3100 3099 3098 3098 3097 3097 3096 3096 3095 3095 3094 3094 3094 3093 3093 3093 3092 3092 3091 3091 3090 3090 3091 3091 3091
3120 3119 3118 3117 3116 3114 3113 3111 3110 3109 3107 3106 3104 3103 3102 3101 3100 3099 3097 3097 3096 3096 3095 3094 3094 3093 3093 3092 3092 3092 3091 3091 3091 3090 3090 3089 3089 3088 3088 3087 3088 3088
3119 3118 3117 3116 3115 3113 3112 3110 3109 3107 3106 3105 3103 3102 3101 3100 3099 3098 3096 3095 3095 3094 3093 3092 3092 3091 3091 3090 3090 3090 3089 3089 3089 3088 3088 3088 3087 3086 3086 3085 3084 3084
3118 3117 3116 3115 3114 3112 3111 3109 3108 3107 3105 3104 3102 3101 3100 3099 3098 3097 3095 3094 3093 3093 3092 3091 3090 3089 3088 3088 3087 3087 3087 3087 3086 3086 3085 3085 3085 3084 3084 3083 3082 3081
3117 3116 3115 3114 3113 3111 3110 3109 3107 3106 3104 3103 3101 3100 3099 3098 3097 3096 3094 3093 3092 3091 3091 3090 3089 3088 3087 3086 3085 3085 3085 3084 3084 3083 3083 3082 3082 3081 3081 3080 3080 3079
3116 3115 3114 3113 3111 3110 3109 3108 3106 3105 3104 3102 3101 3099 3098 3097 3096 3095 3093 3092 3091 3090 3089 3088 3087 3086 3085 3084 3084 3083 3082 3082 3082 3081 3080 3079 3079 3078 3078 3077 3077 3076
3114 3113 3112 3111 3110 3109 3108 3106 3105 3104 3103 3101 3100 3098 3097 3096 3094 3093 3092 3091 3090 3089 3088 3087 3086 3085 3084 3083 3082 3081 3081 3080 3079 3079 3078 3077 3077 3076 3075 3074 3074 3073
3113 3112 3111 3110 3109 3107 3106 3105 3104 3103 3101 3100 3099 3097 3096 3095 3093 3092 3091 3090 3089 3087 3086 3085 3084 3083 3082 3081 3080 3079 3079 3078 3078 3077 3076 3076 3075 3074 3073 3072 3071 3071
3111 3110 3109 3108 3107 3106 3105 3104 3102 3101 3100 3099 3097 3096 3095 3093 3092 3091 3090 3088 3087 3086 3085 3083 3082 3081 3080 3080 3079 3078 3077 3076 3076 3075 3075 3074 3073 3072 3071 3070 3069 3069
3110 3109 3108 3106 3105 3104 3103 3102 3101 3099 3098 3097 3096 3094 3093 3092 3091 3089 3088 3087 3086 3084 3083 3082 3080 3079 3078 3077 3076 3076 3075 3074 3074 3074 3073 3072 3072 3071 3069 3068 3067 3066
3108 3107 3106 3105 3103 3102 3101 3100 3099 3098 3097 3096 3094 3093 3092 3090 3089 3088 3086 3085 3084 3083 3081 3080 3079 3077 3076 3075 3074 3073 3072 3071 3071 3071 3071 3070 3069 3069 3068 3067 3065 3064
3106 3105 3104 3103 3102 3101 3100 3098 3097 3096 3095 3094 3093 3091 3090 3089 3087 3086 3085 3083 3082 3081 3079 3078 3077 3075 3074 3073 3072 3071 3069 3069 3069 3068 3068 3067 3067 3067 3066 3065 3064 3063
3105 3104 3102 3101 3100 3099 3098 3097 3096 3095 3094 3092 3091 3090 3089 3087 3086 3084 3083 3081 3080 3079 3077 3076 3075 3073 3072 3071 3070 3068 3067 3066 3066 3065 3065 3065 3065 3064 3064 3063 3063 3061
3103 3102 3101 3100 3098 3097 3096 3095 3094 3093 3092 3091 3090 3089 3087 3086 3084 3083 3081 3080 3078 3077 3075 3074 3073 3071 3070 3069 3067 3066 3065 3064 3063 3063 3063 3063 3062 3062 3062 3061 3061 3060
3101 3100 3099 3098 3097 3096 3095 3094 3093 3092 3090 3089 3088 3087 3086 3085 3083 3081 3080 3078 3076 3075 3073 3072 3070 3069 3068 3066 3065 3064 3062 3061 3060 3060 3060 3060 3060 3060 3060 3059 3058 3058
3100 3099 3097 3096 3095 3094 3093 3092 3091 3090 3089 3088 3087 3085 3084 3083 3081 3080 3078 3076 3074 3073 3071 3070 3068 3067 3065 3064 3062 3061 3060 3059 3058 3057 3057 3057 3057 3057 3057 3057 3056 3055
3097 3096 3095 3094 3093 3092 3091 3090 3089 3088 3087 3086 3085 3083 3082 3081 3079 3078 3076 3074 3073 3071 3069 3068 3066 3064 3063 3061 3060 3058 3057 3056 3055 3055 3054 3054 3055 3055 3055 3054 3054 3053
3095 3094 3093 3092 3091 3090 3089 3088 3087 3086 3085 3084 3082 3081 3080 3079 3077 3076 3074 3072 3071 3069 3067 3066 3064 3063 3061 3059 3058 3056 3055 3054 3053 3052 3052 3052 3052 3052 3052 3052 3051 3051
3093 3092 3091 3090 3089 3088 3087 3086 3085 3084 3082 3081 3080 3079 3078 3077 3075 3074 3072 3071 3069 3067 3066 3064 3062 3061 3059 3057 3056 3054 3053 3051 3050 3050 3049 3049 3049 3049 3049 3049 3049 3048
3091 3090 3089 3088 3087 3086 3085 3084 3083 3082 3080 3079 3078 3077 3076 3075 3073 3072 3071 3069 3067 3065 3064 3062 3061 3059 3057 3055 3054 3052 3051 3049 3048 3047 3046 3046 3046 3046 3046 3046 3046 3045